RH
80 84 92 92 87 84 81 80 89 96 98 92 86 84 79 80 78 83 88 83 87 87 87 86 87 92 90 89 87 79 77 71 62 63 58 59 67 66 61 58 61 60 56 56 55 52 49 47 47 48 47 48 48 48 49 49 50 51 52 53 51 47 43 37 31 27 27 33 42 42 39 41 46 52 53 51 53 51 48 48 44 43 48 54 53 49 51 52 51 50 49 52 53 53 52 53 53
81 85 92 91 91 90 89 88 94 98 98 92 83 79 76 75 75 83 85 84 88 84 85 85 87 92 90 89 84 78 80 77 70 63 53 56 63 64 60 56 59 57 55 54 53 51 47 46 46 46 45 46 47 47 48 49 49 50 50 48 43 38 32 27 25 28 34 42 46 44 44 47 53 59 56 53 53 50 49 48 46 47 51 58 60 54 53 53 52 52 53 55 56 55 55 55 55
86 89 91 91 92 92 94 95 98 97 94 92 83 77 77 73 76 85 85 87 92 86 87 86 87 92 87 84 84 80 77 80 79 64 51 56 58 58 57 56 58 55 54 54 52 50 47 46 44 47 45 41 43 42 41 40 39 40 37 33 29 26 25 27 32 37 42 47 51 52 53 51 56 62 57 52 49 49 51 48 47 50 50 53 57 54 51 53 54 55 54 55 57 56 54 52 50
91 91 90 91 92 93 98 97 97 97 91 87 79 77 79 77 80 88 87 88 92 90 90 89 90 93 86 78 79 78 75 79 79 58 48 57 56 54 57 56 57 54 53 51 49 47 46 44 42 51 50 40 38 34 31 29 27 26 23 22 22 26 31 37 41 44 46 50 52 52 53 50 55 60 55 52 50 49 51 49 49 52 52 50 51 51 51 52 53 55 54 53 54 52 49 47 48
92 89 84 88 93 95 98 98 97 96 87 80 76 76 80 82 85 89 87 88 92 91 92 90 87 92 88 77 75 71 70 74 69 55 48 55 55 52 57 59 57 54 51 47 45 43 42 40 38 48 46 34 29 26 25 23 22 21 22 26 31 37 41 43 44 45 49 52 50 49 52 50 53 57 55 56 55 51 50 51 51 53 54 52 51 51 51 51 54 56 56 53 50 47 46 46 47
86 87 86 88 92 95 96 99 98 94 85 78 74 74 83 86 86 89 88 89 92 90 93 88 83 88 84 78 76 67 65 65 59 55 50 50 52 50 53 57 56 51 48 46 44 41 37 33 29 31 29 24 23 23 23 24 26 29 33 37 40 42 43 44 43 45 47 49 49 49 51 48 49 54 55 56 55 54 54 53 53 54 53 52 52 51 51 52 54 57 56 53 50 46 46 48 49
82 90 91 91 94 96 96 99 96 91 82 76 75 79 87 89 84 85 87 88 87 89 92 87 83 80 76 74 71 68 65 61 56 55 52 49 50 48 48 48 46 43 42 42 39 35 30 25 22 21 20 20 23 25 29 32 36 38 39 40 41 42 42 44 44 46 49 50 50 47 49 47 45 49 54 56 55 56 57 55 55 55 53 53 53 51 51 53 55 57 56 54 51 47 47 49 50
82 90 91 90 93 94 95 97 94 89 80 74 81 87 85 85 81 78 83 86 85 89 89 89 85 72 77 75 66 71 68 63 57 53 54 52 47 44 45 44 42 40 35 32 29 28 25 22 20 19 20 22 27 33 37 38 38 38 38 39 40 43 44 45 46 49 51 50 48 48 51 50 46 49 54 56 56 57 57 56 56 55 54 53 54 53 52 53 55 57 57 54 51 49 50 50 50
81 87 88 87 92 94 90 90 89 87 82 75 84 91 82 81 83 81 86 87 85 89 88 93 84 69 83 79 66 74 70 66 61 54 54 49 45 44 47 48 46 38 27 24 23 24 23 21 20 19 21 27 35 38 38 36 35 36 38 39 41 46 47 47 47 48 48 47 50 53 53 51 48 50 57 59 57 55 55 55 54 53 53 53 53 53 52 53 55 57 57 55 52 52 54 51 47
80 87 86 85 88 88 82 81 86 84 78 75 85 89 79 82 89 87 89 87 87 92 92 94 81 69 79 73 67 74 69 67 63 58 54 49 48 49 51 52 47 32 20 19 21 23 23 21 20 21 26 33 38 38 36 34 34 38 39 39 43 49 48 46 45 45 45 46 52 52 49 47 42 44 54 58 55 54 53 53 53 52 51 51 51 50 50 51 54 57 58 55 54 55 57 50 45
82 91 86 87 85 81 78 76 82 84 75 72 85 88 81 89 91 86 88 89 91 93 93 89 75 68 72 73 74 73 70 68 64 60 54 52 53 53 53 49 44 30 18 18 19 21 22 23 23 24 30 35 38 37 36 36 37 41 41 40 46 50 48 45 43 42 41 45 48 41 37 35 33 38 47 52 53 51 49 49 51 53 51 50 50 50 48 50 54 58 57 55 55 54 51 44 43
83 92 82 89 88 84 82 74 76 83 78 71 85 92 85 90 88 84 88 90 92 92 94 84 71 68 66 75 81 76 75 70 65 61 55 52 52 54 53 47 41 29 19 20 19 19 19 24 28 28 32 37 38 37 38 37 38 42 41 41 47 49 47 43 41 39 40 46 45 36 34 37 36 35 36 41 42 38 37 42 49 52 51 51 53 51 49 49 53 57 57 53 48 42 38 34 37
75 85 82 87 89 88 83 77 74 76 78 74 87 94 81 84 84 79 84 91 95 94 92 79 71 71 63 72 82 79 79 75 67 62 56 53 54 55 51 46 39 27 21 24 23 20 18 25 31 30 35 38 37 37 38 37 39 44 45 45 46 46 45 42 38 36 41 46 45 40 37 38 36 33 35 38 38 39 40 45 49 49 49 53 56 53 50 50 51 53 50 42 35 33 36 36 37
61 77 84 85 84 85 83 82 81 76 77 72 81 93 82 82 79 72 83 93 96 95 91 79 74 71 62 66 77 80 80 77 70 61 55 58 63 60 50 43 36 28 24 26 27 22 18 25 31 34 38 39 36 37 39 39 41 44 46 47 44 43 44 41 35 36 45 49 46 45 41 36 35 37 43 43 44 50 49 48 47 47 49 52 55 52 49 50 51 49 42 36 36 41 47 47 43
58 78 83 82 82 84 83 83 86 79 74 70 76 89 83 84 82 78 89 92 91 95 90 82 78 69 59 57 66 77 73 70 71 61 55 58 63 60 49 41 36 30 26 26 27 21 18 24 31 39 42 40 38 39 39 39 41 42 45 46 43 43 40 35 33 37 47 53 51 51 49 44 40 41 44 46 49 50 49 50 50 49 49 51 53 53 51 52 52 50 47 44 45 49 53 56 54
69 84 82 78 82 83 81 83 87 77 70 74 82 89 80 80 88 87 93 92 91 94 88 85 86 77 64 56 60 69 63 63 67 59 57 59 59 58 48 42 40 33 27 25 23 19 19 22 30 39 41 39 39 37 33 36 41 42 43 44 42 41 36 31 35 39 43 49 52 51 52 48 44 46 48 49 49 48 47 49 49 50 51 52 53 55 55 56 56 55 53 51 50 51 56 62 62
78 81 80 77 82 80 76 80 83 74 69 72 81 94 79 69 84 92 93 93 93 93 91 91 90 81 67 62 63 65 61 58 58 55 58 60 58 56 49 45 43 35 29 27 22 18 18 24 31 38 40 38 36 31 29 34 38 41 43 43 42 39 32 28 34 41 41 45 49 48 48 46 44 47 47 46 47 49 49 47 47 47 50 52 52 55 57 57 57 56 54 53 53 53 56 61 63
78 77 79 74 78 77 70 76 78 69 70 70 76 95 85 72 86 96 94 91 91 92 94 94 89 80 70 68 68 64 63 57 54 55 56 58 55 53 51 47 45 38 32 32 29 23 22 29 36 39 40 37 32 27 29 34 36 41 43 42 42 37 28 26 34 42 46 49 50 49 48 47 47 47 47 47 48 50 50 49 48 46 46 47 48 50 51 52 52 52 53 54 54 53 53 56 59
75 72 75 70 72 70 64 71 75 67 69 76 80 92 90 86 93 94 87 84 88 92 93 94 90 85 79 75 71 65 63 57 56 53 50 54 51 50 51 51 49 40 35 37 35 32 29 35 41 46 43 34 29 26 30 34 37 41 41 42 42 33 24 28 39 45 50 52 51 50 49 50 51 51 51 51 51 52 51 47 44 42 43 45 45 45 47 51 51 52 53 54 55 54 54 55 56
71 66 62 62 65 63 59 60 67 66 68 75 74 80 83 84 89 88 82 78 87 93 92 96 88 81 82 78 70 66 62 59 60 53 48 50 48 46 47 51 53 42 38 40 39 37 37 41 46 50 45 32 25 26 32 36 38 41 41 43 41 32 28 37 47 47 49 50 49 49 49 51 53 55 54 52 53 54 53 48 43 40 42 46 48 48 52 57 59 60 59 58 58 56 55 56 57
66 65 53 50 54 57 57 53 59 66 69 70 63 71 80 80 80 79 79 79 89 94 91 93 80 68 74 73 67 65 62 61 60 55 49 48 47 45 42 47 52 46 41 41 41 42 44 48 49 51 46 29 22 26 34 37 39 41 42 43 42 39 39 46 52 50 49 49 49 48 50 52 52 54 55 53 52 53 54 52 49 46 47 52 54 56 58 61 63 61 61 62 63 61 58 60 60
59 63 56 51 51 51 52 52 61 67 71 73 67 74 81 81 80 75 78 79 85 86 84 91 80 64 63 63 65 65 62 61 57 54 51 47 45 44 42 44 51 48 44 43 42 43 48 51 49 50 41 25 22 28 33 38 41 41 42 44 45 47 46 49 55 53 50 51 51 51 52 53 51 51 54 54 51 50 54 55 55 54 54 57 59 61 59 60 64 64 63 63 64 64 62 64 64
51 54 55 49 45 45 50 55 62 68 72 72 70 77 78 78 78 76 80 80 79 77 81 92 84 73 62 57 66 65 59 58 56 53 50 48 45 44 43 42 46 46 44 45 43 42 48 50 50 48 35 24 26 30 34 40 42 41 43 47 49 50 48 49 56 56 55 57 57 56 56 55 51 49 54 59 56 51 54 57 60 59 58 60 61 62 62 61 63 65 65 64 67 69 66 66 65
47 48 48 45 41 43 51 54 60 67 71 71 69 71 74 78 76 72 77 81 80 77 86 93 82 78 69 59 67 65 58 57 55 54 50 50 47 44 44 41 41 44 45 46 42 42 46 50 51 48 39 32 32 35 39 43 45 43 45 49 50 52 51 50 57 59 59 62 64 63 61 58 54 52 55 59 61 60 59 59 59 59 60 61 61 61 65 68 68 67 67 69 75 76 73 71 69
44 44 42 41 39 40 46 51 61 69 68 67 68 68 71 80 82 78 78 85 86 74 81 93 82 79 73 63 69 66 60 58 55 54 52 51 48 45 46 42 40 42 44 44 42 42 45 49 50 47 44 39 38 42 44 47 49 48 50 52 51 55 56 49 52 58 61 64 68 68 65 61 59 57 56 58 63 65 63 60 57 60 61 59 61 62 64 70 74 72 68 71 75 70 68 72 74
39 39 37 35 34 35 40 48 57 64 63 60 63 68 68 74 83 82 76 86 92 74 77 95 88 79 76 71 73 67 60 58 55 54 54 53 49 45 44 43 42 40 41 43 42 41 44 47 47 47 44 41 42 45 49 51 49 50 54 54 52 55 57 47 43 54 59 63 67 68 67 65 65 63 59 60 63 61 59 58 57 59 59 56 59 61 62 63 63 66 66 71 75 67 60 64 70
31 32 32 31 31 30 33 43 53 59 61 61 62 67 67 70 82 81 72 81 92 84 85 97 87 75 76 77 74 66 59 59 57 55 55 55 50 46 43 42 43 40 40 42 41 41 44 46 46 44 42 42 44 47 52 54 50 51 53 55 56 53 49 40 38 47 52 57 62 66 68 66 66 64 57 57 61 58 56 58 59 58 56 54 55 57 60 58 54 59 66 67 72 71 62 61 65
26 25 25 26 31 31 28 37 55 58 52 56 62 69 72 74 79 77 74 80 89 91 92 95 86 71 72 80 78 71 67 63 59 58 56 56 52 45 42 41 42 41 39 40 40 41 43 44 44 41 39 42 47 49 52 54 52 52 51 54 58 51 40 35 39 43 44 50 55 61 65 60 59 59 55 58 60 57 55 59 62 60 59 58 58 57 57 57 54 56 61 62 67 68 63 61 61
24 22 21 23 29 32 29 32 47 50 44 49 58 70 75 73 72 72 74 76 82 92 92 93 91 76 74 85 85 84 84 71 61 60 59 58 53 45 42 42 40 39 39 39 38 39 41 42 42 39 38 42 47 51 53 53 53 54 52 51 52 45 36 37 43 42 42 49 51 55 57 52 52 55 57 58 55 53 55 57 57 56 56 58 61 58 54 56 57 55 57 63 68 67 66 69 66
20 20 19 21 24 26 29 29 35 42 42 42 51 66 74 73 69 68 72 75 83 92 90 90 93 86 83 87 88 91 91 77 63 61 62 63 56 44 40 42 40 38 41 40 36 38 41 41 40 38 39 44 47 51 54 53 55 56 50 49 48 40 38 44 47 43 45 50 50 51 49 47 50 55 57 54 50 52 53 53 52 51 54 57 60 59 54 53 55 55 57 64 69 69 73 74 69
16 18 18 19 21 23 26 26 28 37 40 41 52 65 68 71 68 65 73 82 87 89 89 91 91 90 88 84 86 90 90 83 70 62 66 67 61 48 38 40 40 36 39 40 35 36 39 40 40 38 40 46 47 51 55 53 54 50 43 46 45 37 42 49 48 43 46 51 51 51 49 48 51 57 60 59 57 57 56 56 55 55 58 61 60 57 55 52 51 54 58 64 68 70 73 70 62
18 17 18 17 19 21 23 23 25 31 38 42 54 63 63 66 69 68 75 86 88 82 87 94 91 90 89 84 86 89 89 89 79 70 72 69 65 55 39 37 40 34 34 40 37 33 37 40 40 39 40 45 48 50 53 51 47 40 37 44 40 37 46 50 47 45 47 52 52 51 49 48 52 57 61 62 62 61 59 59 58 58 59 61 61 58 55 55 55 57 59 63 69 72 67 59 53
20 18 18 16 17 19 19 21 21 27 40 47 51 58 61 62 66 70 72 82 87 81 85 92 90 88 85 85 88 86 88 95 89 81 80 72 68 65 45 35 39 34 31 37 38 32 33 39 40 39 39 43 47 47 49 45 38 34 35 39 38 42 49 49 46 46 49 52 53 51 49 49 53 58 63 61 60 60 60 60 61 61 61 61 63 63 59 58 61 63 61 63 70 71 61 54 52
22 18 18 16 16 16 17 19 20 23 36 48 52 56 60 61 63 67 68 74 79 78 83 87 90 88 81 81 83 80 82 90 89 83 81 71 69 73 56 38 38 37 33 35 37 33 32 36 39 39 38 43 45 44 46 42 35 33 31 33 39 46 50 49 47 47 50 51 51 51 49 51 54 59 65 61 55 57 61 61 61 64 65 63 62 63 64 64 62 61 60 61 68 69 60 55 55
21 18 17 16 14 14 15 16 18 20 25 38 51 56 59 59 60 64 67 69 71 74 80 82 86 87 83 82 80 76 74 77 78 77 78 70 67 73 61 43 40 39 36 35 35 34 32 33 38 40 38 41 43 41 42 39 37 33 26 30 40 47 50 50 51 52 51 48 47 49 50 52 53 56 64 63 57 57 58 58 58 63 65 62 60 60 63 64 60 58 60 63 68 68 62 55 55
19 17 15 14 13 13 14 14 15 18 21 32 47 52 53 55 60 64 66 69 69 72 77 79 78 80 86 87 82 77 70 68 72 76 79 71 67 70 61 48 42 40 39 37 34 32 30 30 34 37 36 39 41 39 38 37 39 33 24 30 39 46 51 51 53 54 50 46 45 47 49 51 50 53 61 64 62 58 54 54 57 62 62 59 58 57 59 60 59 60 63 67 69 67 62 56 55
21 19 15 13 12 11 12 12 13 15 18 30 41 46 50 53 57 60 62 66 69 73 78 78 74 75 82 82 79 78 71 68 71 77 83 75 70 72 63 51 44 40 40 39 35 30 27 27 29 32 33 35 38 37 35 35 39 34 24 27 35 43 52 54 53 53 50 45 43 45 48 50 51 51 56 61 61 57 54 53 54 55 56 57 57 55 55 56 57 58 61 66 70 68 63 57 53
23 21 17 15 13 11 10 10 12 13 16 27 35 44 52 51 51 54 56 58 61 68 73 73 70 70 75 72 71 74 72 75 74 75 85 83 78 76 66 55 46 40 41 41 38 31 26 25 26 29 30 32 35 35 34 33 37 37 28 25 33 42 51 55 56 55 52 46 43 46 47 48 51 51 54 57 57 57 56 52 50 50 51 52 55 56 55 57 60 59 59 62 64 66 65 58 53
21 19 17 16 14 12 11 10 11 11 14 24 31 42 52 50 48 51 49 47 51 59 63 64 64 65 68 67 68 70 68 74 76 72 82 88 84 79 70 61 50 42 40 40 40 35 27 23 24 27 27 30 34 33 32 32 34 39 35 28 32 41 48 53 57 58 54 47 44 46 47 47 50 51 52 54 53 52 51 48 46 49 50 49 52 57 58 60 63 64 62 59 57 60 61 56 55
18 17 16 15 14 12 11 11 11 10 13 22 29 37 48 52 54 54 51 48 49 56 58 60 63 61 61 62 67 70 65 66 67 67 78 86 85 83 73 62 51 43 40 40 41 38 29 22 21 24 25 28 32 31 30 31 33 39 38 32 32 39 46 47 52 58 54 48 46 45 46 47 48 50 52 53 51 49 47 45 44 48 50 49 49 53 56 59 61 62 61 54 51 52 54 58 61
17 16 15 14 14 12 11 10 11 11 10 17 26 35 46 54 60 61 59 57 54 55 56 58 62 63 62 63 65 69 68 63 57 58 70 75 76 81 74 59 49 41 38 39 40 38 32 24 21 21 24 27 29 29 28 28 32 38 38 34 32 36 43 43 45 53 54 49 47 45 43 44 46 48 50 52 51 50 48 45 43 48 52 52 52 52 53 59 62 63 59 50 45 46 49 57 59
16 16 16 15 14 12 11 11 11 11 9 13 20 33 49 54 58 64 59 55 56 56 55 55 59 63 65 66 65 65 68 65 59 58 63 62 62 72 71 60 50 41 38 38 39 39 35 29 24 22 22 26 29 29 27 25 28 35 37 33 29 29 36 38 39 46 51 50 48 44 39 39 42 43 45 48 49 50 49 44 40 45 51 51 54 54 50 56 62 62 60 51 44 44 45 49 52
17 16 16 15 14 12 12 12 11 11 9 11 12 22 47 55 55 61 51 44 53 53 50 53 57 59 59 61 62 63 63 61 62 64 63 59 56 61 63 58 49 42 39 39 39 40 37 33 29 23 19 22 28 29 28 25 23 29 35 34 29 26 30 35 37 41 47 47 46 43 39 37 40 41 41 44 46 47 47 45 42 42 46 49 53 53 49 56 59 57 58 52 43 42 41 41 44
17 17 17 15 15 12 12 12 11 12 9 11 9 11 37 55 53 56 48 44 53 50 44 49 52 51 50 52 56 59 59 56 58 61 61 59 55 51 51 52 49 43 41 40 39 39 37 34 32 28 22 20 23 26 28 26 21 21 29 35 33 28 29 35 37 38 41 43 43 42 39 37 39 41 40 42 44 44 44 44 45 43 42 50 59 54 47 51 51 48 51 50 44 40 39 39 38
18 18 17 16 16 13 12 10 10 12 9 11 10 6 26 47 47 49 50 50 54 47 39 43 47 47 46 47 50 54 56 54 53 53 50 51 52 47 45 49 50 46 43 41 41 40 38 35 33 32 27 20 18 21 25 26 24 20 22 30 34 32 33 37 39 38 38 40 40 40 38 35 38 43 41 40 41 41 42 42 44 43 39 44 53 49 41 42 43 44 48 46 44 41 40 40 38
19 19 17 15 16 13 11 12 11 11 10 11 11 7 16 32 43 55 59 52 46 40 36 37 39 42 44 45 48 51 53 53 52 49 45 46 49 48 47 48 50 48 44 42 42 42 41 38 35 33 31 25 19 17 20 24 25 23 21 24 29 31 34 36 38 38 37 38 38 38 37 33 36 43 42 40 40 39 40 39 40 39 36 36 41 41 38 39 41 45 46 43 42 40 40 40 37
18 17 16 15 16 15 12 13 12 14 16 11 9 9 11 22 39 54 53 38 29 31 35 36 35 38 41 44 48 49 47 48 49 48 47 49 51 50 48 47 49 50 46 44 44 44 43 42 38 35 33 29 24 18 17 20 23 24 22 21 23 26 30 34 35 36 37 37 36 36 38 33 32 41 43 40 39 38 37 39 39 36 33 33 37 38 35 35 39 42 42 42 43 38 36 36 34
16 15 16 16 16 15 14 13 14 22 25 14 8 9 10 15 24 34 35 27 22 23 26 28 31 34 36 39 46 48 45 44 46 48 48 50 53 54 50 46 47 49 49 45 44 45 45 44 41 39 36 33 29 24 18 16 19 23 24 22 20 20 24 30 33 33 35 37 35 34 38 36 32 36 41 41 40 37 35 37 40 37 32 31 33 34 32 32 36 38 39 41 45 42 35 30 30
17 17 16 18 18 17 20 19 18 24 25 16 11 9 9 11 13 19 25 28 31 28 25 24 25 29 31 33 40 46 47 46 47 48 49 49 51 54 51 46 44 46 49 46 43 45 47 45 43 42 40 36 33 30 25 19 16 18 22 23 21 18 18 24 30 31 32 35 36 33 36 37 34 34 38 41 41 39 35 34 38 41 36 31 29 30 33 36 35 35 37 39 43 47 45 36 30
19 19 17 19 21 23 27 27 23 24 21 16 15 12 10 10 10 13 17 21 27 28 28 28 26 25 27 29 34 41 43 46 49 50 50 48 48 51 51 48 46 46 46 45 44 45 46 45 44 43 42 41 38 34 31 26 20 17 18 21 22 20 16 18 24 29 30 32 34 34 34 36 36 36 39 41 41 40 39 34 34 40 41 36 32 28 30 38 39 35 35 38 39 44 50 47 36
18 18 17 17 18 22 26 26 25 25 21 17 16 15 13 9 8 10 10 12 16 18 23 29 29 28 27 27 30 35 38 42 47 49 48 47 46 48 49 48 46 44 43 45 45 44 43 41 42 43 42 41 41 39 36 32 28 22 18 18 20 21 18 16 18 24 27 28 30 32 33 33 35 37 40 42 41 41 41 36 33 38 42 41 38 32 28 32 37 36 34 36 38 39 43 49 45
21 18 17 17 16 18 20 20 20 19 20 21 18 16 15 11 9 8 7 8 9 12 21 29 32 32 31 30 31 34 36 39 45 48 47 47 47 48 49 48 46 43 43 47 46 42 38 36 38 41 42 41 40 39 38 36 34 30 25 19 17 18 19 18 16 18 23 26 27 28 30 31 32 34 37 39 41 42 42 39 35 35 39 42 41 38 34 30 31 32 33 34 36 36 38 44 48
22 18 17 17 17 17 17 19 17 17 23 24 19 17 15 12 12 10 8 9 7 10 18 25 31 36 35 34 33 34 34 36 40 44 44 45 47 50 50 48 47 45 45 48 48 41 34 33 35 38 41 43 41 39 39 39 38 36 33 27 21 17 17 18 18 16 18 21 24 25 26 27 29 31 33 34 37 40 42 43 41 35 34 38 41 41 40 36 30 27 28 31 33 34 35 37 44
21 20 18 18 19 18 18 21 21 23 27 23 17 18 17 13 12 11 9 9 9 10 12 18 28 36 37 34 34 33 30 33 37 38 41 43 44 48 50 50 48 45 45 48 46 40 36 34 32 34 38 40 39 38 38 41 41 38 36 34 30 24 18 17 17 17 17 18 21 22 22 23 24 27 28 29 30 33 37 42 44 41 36 34 36 40 42 40 37 31 27 26 29 31 32 32 37
20 20 20 19 21 22 21 23 24 26 29 24 18 16 16 15 13 12 12 10 11 11 11 18 29 34 35 35 36 34 30 33 38 39 41 42 44 47 49 49 48 46 46 47 45 41 39 35 30 29 33 37 40 41 41 42 42 41 39 36 35 32 26 20 17 17 18 18 18 20 21 20 20 22 25 26 26 27 31 36 40 44 43 37 33 36 38 39 40 40 35 29 26 27 29 30 32
20 20 21 20 21 22 22 22 22 24 28 27 23 19 16 15 14 13 14 11 11 12 11 18 28 30 34 38 38 38 36 36 37 38 38 40 42 47 49 48 47 46 45 46 46 43 39 35 30 26 27 33 40 42 40 41 42 41 40 38 36 35 33 30 24 19 17 17 17 18 20 20 19 19 21 23 24 24 25 29 33 38 42 40 35 34 36 36 37 40 40 38 33 29 28 29 29
20 20 21 20 20 21 22 23 21 22 26 26 28 27 18 16 20 22 19 13 12 15 13 14 19 22 29 39 39 36 36 35 34 33 35 38 42 46 49 48 46 46 46 46 46 45 41 36 32 27 25 28 33 33 32 35 39 41 40 38 36 34 34 34 32 27 22 19 18 17 19 20 20 19 19 20 22 22 22 25 28 30 35 38 36 35 36 36 37 39 40 39 39 37 34 31 28
20 19 20 21 21 20 23 27 23 21 23 21 25 29 21 18 24 24 20 15 13 17 17 14 16 15 19 32 37 33 32 30 30 33 35 38 41 44 46 46 45 46 47 47 46 45 42 38 35 31 26 24 27 28 25 25 31 37 37 34 34 33 33 33 33 31 27 23 21 18 18 19 20 20 19 18 19 20 21 23 26 28 30 33 33 33 34 33 34 37 36 35 35 37 39 39 35
Wind_Speed
5 6 6 4 2 1 2 1 2 3 4 6 8 7 5 3 4 5 7 11 13 13 16 17 16 16 20 21 20 19 19 20 22 22 24 29 30 27 26 26 26 25 25 25 25 24 24 24 24 23 22 21 20 19 18 17 17 16 15 15 13 13 12 11 9 9 9 9 9 8 7 7 7 6 5 4 4 4 6 7 8 8 9 9 9 9 9 9 9 9 10 10 10 11 11 10 9
5 6 6 3 3 2 2 1 3 4 5 7 8 5 2 3 6 9 11 13 13 14 17 16 13 14 17 19 16 18 20 19 17 17 24 30 30 28 26 25 25 25 25 25 24 23 23 23 22 20 20 19 18 17 16 16 15 15 14 13 12 11 10 10 10 10 10 10 9 8 8 8 8 6 5 5 4 5 8 8 8 9 9 10 9 9 10 11 11 12 12 12 12 12 12 12 10
5 6 5 3 2 1 1 3 3 5 7 10 9 2 4 6 10 13 13 14 14 14 17 14 12 15 16 18 16 17 21 19 15 18 27 29 28 29 27 26 25 25 25 24 23 22 22 21 20 19 18 17 17 16 15 15 15 14 13 12 11 11 11 11 11 11 11 10 10 9 9 10 9 8 8 7 6 8 9 9 9 10 10 10 9 9 10 11 13 13 13 12 13 13 13 12 11
4 4 3 2 3 3 3 4 4 7 8 9 7 2 6 9 14 15 15 16 18 16 14 14 14 13 12 17 18 17 19 16 15 20 27 29 27 29 29 27 26 25 24 23 22 21 20 20 19 18 17 16 15 15 14 14 14 14 13 12 12 12 12 12 12 11 11 11 10 10 11 11 10 9 10 10 10 10 9 9 10 10 10 10 9 9 10 12 14 14 14 14 14 14 13 12 12
3 4 4 5 6 5 4 5 5 7 7 6 4 4 7 13 15 13 16 17 20 16 12 12 13 13 11 16 15 13 15 18 21 24 27 30 27 27 28 27 26 25 23 22 21 20 19 18 18 18 16 15 14 14 15 15 15 15 15 15 14 14 13 12 12 12 11 11 11 11 12 13 12 10 10 11 12 11 10 11 11 11 11 11 11 11 12 12 14 15 15 15 15 15 14 13 12
4 5 6 6 5 5 6 6 7 9 6 5 3 7 11 16 16 12 14 16 18 17 12 11 13 16 16 15 12 10 15 22 27 27 26 29 27 26 27 26 25 23 22 21 20 19 18 17 17 17 16 15 15 16 17 18 18 18 17 16 15 14 13 12 12 12 11 12 12 12 13 14 14 12 11 11 13 13 13 13 12 12 12 12 12 13 13 13 14 15 15 15 15 15 14 14 13
5 6 5 5 6 7 9 9 11 11 5 5 6 11 15 18 17 14 15 17 17 17 13 11 12 17 19 17 17 18 20 22 25 26 27 28 27 27 26 25 24 22 21 20 20 19 18 17 17 17 17 17 18 19 20 20 20 18 17 15 14 14 13 12 12 13 13 13 13 13 14 15 16 14 11 12 14 14 14 13 13 12 12 12 13 14 14 14 14 14 15 15 15 14 15 14 14
6 5 4 6 7 8 10 12 13 10 5 7 9 13 17 20 19 15 14 17 17 15 12 12 12 15 19 17 22 25 23 22 23 26 27 28 28 27 26 24 23 21 20 19 19 19 18 18 17 18 18 19 20 21 21 20 19 17 16 15 14 14 13 13 13 14 14 14 14 15 15 16 18 17 13 12 14 15 14 13 13 12 12 12 13 14 14 14 14 14 15 15 15 14 15 15 14
5 6 6 7 8 10 13 14 12 6 6 9 11 12 18 21 18 17 17 18 17 15 12 13 12 12 18 19 25 27 24 24 24 26 26 27 27 26 25 22 21 19 19 19 19 19 18 18 18 19 20 21 22 22 21 19 17 16 15 15 15 15 15 14 14 14 14 15 15 15 16 17 18 18 15 13 14 15 14 13 13 13 12 12 13 13 13 13 13 14 15 15 15 14 14 14 14
5 6 7 8 10 11 15 16 11 5 3 10 12 11 17 20 17 18 20 18 19 19 14 13 12 11 19 23 25 25 24 26 26 27 26 26 26 24 23 21 18 17 17 18 18 19 19 19 19 20 21 22 22 21 19 16 15 15 15 15 16 16 16 16 15 15 16 16 16 16 16 17 17 18 16 14 14 15 15 15 15 14 13 13 13 13 13 13 14 14 15 15 15 15 14 14 14
6 6 7 9 11 13 17 15 9 3 3 9 13 13 15 17 16 20 21 20 19 18 16 13 13 16 22 24 24 24 24 25 25 27 27 26 25 24 23 20 18 15 15 17 18 18 19 20 20 21 21 21 20 19 17 16 15 15 15 15 16 17 16 16 16 16 17 17 16 16 16 16 17 17 17 15 14 15 15 15 15 15 14 14 14 15 15 15 15 15 14 15 16 16 15 14 15
6 5 7 8 10 13 16 11 7 2 5 7 11 14 14 13 17 20 19 21 19 17 15 13 16 20 23 26 26 26 25 25 25 25 26 26 25 24 22 20 18 16 15 15 16 17 18 20 20 21 20 19 19 17 17 16 15 15 15 16 17 17 16 15 16 16 17 17 16 16 17 17 17 17 16 16 15 15 16 16 16 15 15 15 16 17 17 17 16 15 15 16 17 17 17 16 16
6 5 7 9 10 13 14 7 5 2 4 6 9 11 13 14 16 20 18 21 21 17 13 12 16 18 22 28 29 27 26 25 25 24 25 25 24 23 21 20 18 17 16 15 15 16 17 19 20 20 19 18 18 17 17 16 16 16 17 18 18 17 16 16 16 16 16 16 16 17 18 19 19 18 17 17 17 17 18 17 17 17 16 16 17 17 18 18 17 16 16 17 18 19 19 18 17
5 8 9 11 12 13 12 8 6 2 5 7 9 10 13 14 16 20 19 22 22 17 12 11 15 17 24 30 29 29 27 26 25 24 24 23 23 22 21 19 18 17 16 16 15 15 17 18 19 19 18 18 18 18 17 16 16 17 18 18 18 17 16 16 16 16 16 16 17 18 19 19 19 19 18 18 18 18 18 18 18 18 18 18 17 18 18 18 17 17 17 18 19 20 19 19 18
5 8 11 13 14 14 12 8 7 4 5 8 9 10 13 15 19 21 20 20 19 17 13 11 11 12 20 25 28 31 28 27 26 25 24 22 22 22 20 19 18 17 17 16 14 15 17 18 19 18 18 18 18 18 17 17 17 17 18 18 18 18 17 17 16 16 16 16 17 17 18 19 19 19 18 18 18 18 18 18 18 19 19 19 18 19 19 18 18 17 17 17 18 18 18 18 18
5 4 9 12 14 15 12 7 6 5 3 9 10 11 14 15 18 19 19 18 17 17 13 11 9 8 15 20 26 30 29 28 27 25 25 24 23 22 21 19 18 18 17 15 14 15 17 18 18 18 17 17 17 17 17 17 18 18 18 18 18 17 17 17 17 16 15 16 17 17 17 18 19 19 19 18 18 18 18 18 18 18 18 19 19 19 19 19 18 17 17 16 17 17 18 18 18
4 3 10 12 12 13 10 7 6 5 2 9 11 10 14 16 17 18 20 20 19 18 13 9 8 8 14 20 25 29 29 28 27 26 26 25 24 23 22 21 19 18 17 16 15 16 18 18 18 17 17 17 17 16 17 17 17 18 18 18 17 17 17 17 17 16 15 16 17 17 17 18 18 18 18 17 17 17 17 17 17 17 17 18 19 19 19 19 18 17 16 16 16 16 17 18 17
9 8 12 12 9 10 10 8 7 6 1 8 10 9 13 17 18 18 19 19 18 17 13 8 10 12 16 21 27 29 29 29 26 26 26 25 23 23 22 21 19 18 17 16 16 17 18 19 17 16 16 16 16 16 17 17 17 17 17 17 17 17 17 17 16 15 15 15 16 16 17 17 17 17 17 16 15 16 15 15 16 16 16 16 18 19 19 19 18 17 16 15 15 15 16 17 17
11 11 13 12 8 9 9 6 7 7 2 9 9 9 11 13 16 17 17 17 17 16 13 12 14 18 20 22 28 29 30 29 27 26 24 23 23 21 21 20 19 17 17 16 17 17 18 18 17 15 15 15 16 16 17 17 17 17 17 16 16 17 17 17 16 15 15 15 16 16 16 16 16 16 16 15 14 14 14 14 15 15 15 15 17 18 18 18 18 17 16 15 15 14 14 15 16
12 11 11 10 9 11 7 5 9 8 3 7 8 8 9 10 11 13 17 17 18 16 16 19 18 20 23 25 29 30 30 30 27 26 23 22 22 20 18 18 18 17 16 16 17 18 18 18 17 16 15 15 16 16 17 17 16 16 17 16 16 16 17 17 15 15 15 16 16 15 15 15 15 15 15 15 14 14 14 14 14 15 14 14 15 17 17 17 17 18 17 16 15 15 14 14 14
12 13 8 4 7 11 8 7 10 9 2 3 6 8 9 9 9 11 15 17 19 18 19 23 18 17 23 26 29 31 30 29 28 25 24 22 22 21 18 16 17 16 16 17 16 17 17 17 16 16 16 16 16 17 17 16 16 16 17 17 16 16 16 17 16 15 16 16 16 15 15 14 14 14 14 14 14 14 14 14 14 14 14 13 14 15 15 15 16 18 17 16 15 15 15 14 14
11 14 12 9 9 11 10 9 7 6 4 3 4 8 8 9 11 13 15 15 18 18 17 21 15 11 19 24 28 30 28 28 28 25 24 22 22 21 20 18 17 16 16 16 16 16 16 16 15 15 16 17 17 18 17 15 15 16 17 17 16 16 16 16 16 16 16 15 15 14 14 13 13 13 14 14 14 14 14 14 13 13 13 12 13 14 13 13 15 16 16 15 15 15 15 14 14
13 13 13 11 10 11 10 7 7 5 3 3 3 5 8 8 10 13 15 14 15 14 15 18 13 9 15 21 26 27 26 25 26 26 23 21 21 21 20 18 18 16 16 16 16 16 16 16 15 15 16 17 18 18 17 16 16 16 17 17 16 16 16 15 15 15 15 14 14 13 12 12 12 13 13 13 13 13 13 13 13 12 13 12 12 13 13 13 13 14 14 14 14 14 14 14 14
14 12 11 12 11 11 9 6 9 6 1 1 2 2 5 9 7 12 16 13 14 15 17 21 15 12 16 20 26 26 23 23 26 26 24 22 20 20 19 17 16 16 16 16 15 15 15 16 15 15 16 17 17 17 17 17 16 16 17 17 16 16 15 15 15 14 13 13 12 11 11 11 11 12 13 12 12 12 12 12 13 13 12 12 12 12 13 13 13 13 13 14 13 12 13 13 13
16 14 12 11 11 9 7 8 8 6 2 4 7 4 3 9 7 11 15 13 15 15 18 23 17 15 17 20 27 26 23 24 26 27 24 23 21 20 19 16 15 15 16 16 15 15 15 16 16 16 16 16 17 17 17 17 17 16 17 17 16 15 14 14 14 13 12 12 12 10 10 10 9 10 11 12 11 10 10 11 12 12 12 12 12 12 12 13 13 12 12 14 13 11 12 13 12
14 15 13 9 7 7 8 10 11 11 7 7 8 3 3 8 9 11 13 12 16 15 17 23 19 16 17 21 28 24 22 25 26 27 25 24 22 21 20 17 16 15 15 15 16 15 15 16 16 16 16 16 16 17 17 17 17 17 17 17 16 14 13 13 13 13 12 11 10 9 10 10 8 8 9 10 10 9 9 10 10 11 11 11 11 12 12 12 13 13 12 13 12 9 10 12 13
12 14 16 13 9 9 11 12 14 14 8 6 6 3 3 7 11 12 12 12 15 17 18 21 18 16 17 22 28 23 21 24 26 26 25 24 23 21 20 18 17 15 15 16 16 16 15 16 16 16 16 16 16 16 16 17 17 18 17 17 16 14 12 12 12 12 12 10 9 9 10 9 9 8 8 9 9 8 9 10 10 10 11 11 11 11 11 11 12 12 12 12 12 10 8 10 11
14 14 16 14 11 11 13 13 14 14 9 8 7 5 6 9 11 10 11 13 16 18 19 20 18 15 16 21 26 23 21 24 27 26 24 24 23 22 21 19 18 16 15 16 16 16 15 16 17 16 15 15 16 16 16 16 17 17 16 16 16 15 14 13 12 12 12 11 9 10 9 9 9 8 8 9 8 7 8 8 9 10 10 11 11 11 10 11 11 11 11 12 11 11 9 9 10
15 14 14 11 11 13 14 14 16 16 13 12 9 6 8 8 9 9 9 13 17 19 19 21 21 15 15 20 24 23 22 24 28 27 24 22 21 21 21 20 18 17 15 16 16 17 16 16 17 17 15 15 15 15 15 16 17 17 16 15 15 15 15 14 12 11 11 11 10 10 9 8 9 8 8 9 9 8 9 9 8 9 10 11 11 11 11 11 11 11 12 12 11 11 9 8 10
11 11 13 12 13 15 15 15 17 19 17 16 11 8 10 7 7 8 10 15 19 22 22 24 23 17 15 18 24 26 24 23 26 27 24 22 21 20 21 21 19 17 16 16 17 18 17 16 17 18 16 15 15 15 15 16 16 17 17 16 15 15 15 14 12 11 11 10 10 10 8 8 9 9 9 9 10 10 9 9 8 8 9 11 12 11 11 11 11 11 11 11 11 11 9 8 9
10 11 13 14 17 17 15 16 18 21 22 17 11 11 11 8 8 9 12 19 23 23 24 25 23 20 17 19 23 26 25 22 23 26 24 21 21 19 20 22 21 18 17 16 17 18 17 17 17 18 17 15 15 15 15 16 16 17 17 16 16 16 15 14 12 12 12 11 10 10 8 8 9 9 9 9 10 10 10 10 9 9 9 10 12 12 11 11 11 11 11 11 10 10 10 8 9
9 12 15 15 18 18 16 17 20 24 24 17 11 12 12 10 10 10 13 20 21 20 23 26 24 21 20 21 22 24 26 24 22 25 25 22 22 21 19 21 22 20 17 16 17 18 18 17 18 18 17 16 15 16 17 17 17 17 17 17 17 17 15 14 13 12 13 12 11 10 8 8 9 10 10 9 9 10 10 10 9 10 10 10 11 12 12 12 11 11 11 11 10 9 9 9 9
10 13 16 15 17 19 17 16 20 24 23 21 18 14 12 11 11 12 13 17 20 20 24 27 24 21 19 21 23 23 27 28 24 25 27 25 23 23 20 20 22 20 17 17 17 18 18 17 18 19 17 16 16 17 18 18 18 18 17 18 18 17 15 15 14 14 13 13 12 10 9 9 11 11 11 11 10 10 10 10 9 10 10 11 11 12 12 12 12 11 11 11 11 10 9 9 10
15 14 16 16 17 19 18 14 16 24 25 26 24 17 12 9 10 15 13 15 21 21 23 25 24 21 18 19 22 22 25 29 27 26 28 26 24 25 23 19 21 21 18 17 17 17 18 18 18 19 18 17 16 17 18 19 19 18 18 19 19 17 16 15 15 15 14 14 13 11 10 11 12 12 12 12 11 11 10 10 9 9 10 11 11 12 12 12 13 12 12 11 11 10 10 9 10
16 17 19 18 17 17 19 17 16 23 27 29 27 20 15 11 10 15 13 15 20 19 20 23 24 22 19 19 21 20 23 28 29 27 27 26 25 27 25 20 20 22 20 19 18 17 18 19 19 20 20 18 17 18 19 19 19 19 19 20 19 17 16 15 15 16 15 14 13 12 11 11 12 12 12 12 11 12 11 11 10 10 10 11 12 12 12 12 12 12 12 12 10 10 9 9 8
16 18 17 16 17 17 18 18 17 23 30 31 30 25 21 17 13 14 15 17 19 19 21 22 23 22 22 22 20 20 21 24 27 26 26 25 25 26 27 23 21 22 22 21 19 18 19 20 20 21 21 20 19 19 20 20 19 19 20 21 20 18 17 16 15 15 15 15 13 12 11 11 11 12 13 12 11 11 12 11 11 11 10 11 11 12 12 11 11 11 11 11 10 9 9 8 8
19 19 19 17 18 18 16 16 15 20 30 33 30 26 23 19 16 15 17 19 19 22 25 25 24 22 24 25 22 21 20 21 24 26 26 25 24 26 26 24 22 22 23 23 22 19 20 21 21 21 21 21 20 19 20 20 19 19 20 21 20 18 17 16 15 15 15 15 14 13 12 11 11 11 12 12 11 11 11 11 11 12 12 12 11 11 12 11 10 11 10 10 9 9 9 8 9
20 20 21 20 21 20 15 15 17 18 24 33 30 24 23 21 20 19 18 19 18 22 28 28 26 24 26 25 23 22 20 20 23 26 28 26 24 26 27 25 23 23 24 25 23 20 20 21 22 22 21 21 21 20 20 20 19 18 18 20 19 17 16 15 14 13 14 15 14 14 13 12 12 11 12 11 11 12 11 11 12 12 12 12 11 11 11 11 10 10 9 10 9 9 8 8 9
19 20 20 20 19 17 12 10 15 18 18 31 33 27 28 25 23 23 19 17 15 16 22 24 24 25 26 26 23 23 22 23 24 26 31 29 25 26 27 26 25 24 24 25 24 22 21 21 22 23 21 21 21 20 20 20 19 19 18 19 18 17 16 15 15 13 14 15 14 14 13 12 12 12 12 11 11 11 11 11 11 12 11 11 12 11 10 10 10 10 9 9 9 8 7 7 8
20 19 19 19 17 16 15 11 10 13 13 24 32 30 33 29 23 25 21 16 16 14 16 18 21 23 24 24 24 24 23 24 25 27 32 32 29 28 28 27 27 26 25 25 26 25 23 21 22 23 22 21 21 20 21 21 20 20 20 19 18 18 17 17 17 15 15 15 14 14 13 12 12 11 11 11 11 11 11 11 11 12 12 11 11 11 11 10 10 9 8 8 8 8 7 7 7
20 19 19 19 18 17 18 18 16 14 12 18 31 28 31 35 29 29 25 19 19 17 16 18 20 23 24 24 26 26 25 25 26 27 31 33 32 30 29 28 28 27 26 26 27 26 24 21 21 22 22 22 22 21 21 22 22 22 22 21 21 21 19 19 19 18 15 15 15 14 13 12 11 11 11 11 11 11 11 11 11 12 11 10 10 11 11 11 10 9 9 8 8 8 7 7 8
21 19 18 18 19 20 20 18 18 17 17 13 27 18 20 36 35 32 29 23 23 23 20 20 21 24 26 27 27 28 27 26 26 27 29 31 31 30 30 29 29 28 26 25 27 26 24 22 21 21 22 22 22 21 21 22 23 24 23 22 23 23 21 19 19 18 16 15 15 14 14 13 12 11 11 11 10 10 11 11 11 11 11 10 10 10 10 11 11 10 9 9 9 8 7 8 9
21 18 16 15 16 20 22 20 17 16 17 9 17 11 13 30 33 32 29 25 26 26 24 23 23 24 26 27 28 29 30 29 28 28 29 29 30 30 30 30 29 28 27 25 26 27 25 23 22 22 22 23 23 22 22 22 23 25 23 22 21 21 20 18 17 18 16 15 16 15 14 13 12 12 11 11 10 9 10 10 10 10 10 10 9 9 9 10 11 10 9 9 9 9 8 8 9
21 18 16 14 14 14 18 20 18 18 21 16 13 11 13 27 32 34 32 28 28 28 26 24 25 26 24 25 28 30 30 31 32 32 31 30 30 31 30 29 28 27 27 26 26 27 26 24 23 23 22 23 24 23 23 23 23 24 24 23 21 20 18 16 15 17 17 16 16 15 14 14 13 12 11 11 11 9 9 9 9 9 9 9 8 8 9 9 10 10 9 9 10 9 9 8 9
19 16 16 16 14 13 13 17 19 18 19 19 18 12 6 22 35 36 33 33 32 28 27 26 27 28 25 24 27 30 30 31 33 33 32 31 31 31 29 28 27 27 28 27 26 26 26 25 24 24 24 23 24 24 24 23 23 24 25 24 22 20 19 18 17 17 18 17 16 15 15 14 13 12 12 11 11 10 9 9 9 9 9 8 8 8 9 9 10 10 10 10 10 10 9 8 8
19 15 16 17 14 11 8 9 14 16 14 19 23 16 8 11 33 41 38 36 33 30 28 27 26 26 25 24 26 30 31 31 33 33 32 31 31 31 30 29 28 28 28 27 26 27 27 26 25 24 25 24 24 25 24 24 24 23 24 25 24 22 21 21 21 20 19 18 18 17 16 15 14 13 12 11 11 11 10 10 9 9 9 8 8 8 8 9 9 10 10 10 10 10 10 9 9
17 16 17 18 16 14 12 7 7 7 8 17 26 22 13 5 21 40 40 28 24 27 31 30 27 25 24 24 27 30 31 31 33 32 31 31 31 31 31 30 29 28 28 29 28 28 27 27 26 24 25 25 25 25 25 25 25 24 24 25 25 24 23 23 23 22 20 19 18 18 17 16 16 14 13 12 12 11 11 10 10 10 9 8 7 8 8 8 9 10 10 9 10 9 9 9 9
14 14 13 13 15 15 14 9 6 4 2 11 20 23 18 12 11 24 28 23 20 22 28 29 26 26 24 22 26 30 31 32 32 30 32 33 32 32 32 31 30 29 30 30 29 28 28 28 27 25 25 26 26 26 26 25 25 25 24 25 25 25 24 24 23 22 20 19 18 18 18 17 16 15 14 13 12 12 11 11 10 10 9 8 7 7 7 7 7 9 9 9 9 9 9 9 9
11 10 11 8 7 8 7 5 4 4 5 9 14 18 19 19 20 20 22 25 25 24 24 24 23 24 23 21 25 30 31 33 33 30 32 33 33 33 33 31 30 30 31 31 29 28 28 27 27 26 25 25 25 26 27 26 25 25 26 25 25 25 25 25 24 22 21 20 18 18 18 17 16 15 14 14 13 12 11 11 11 10 10 9 9 8 7 7 7 8 9 9 9 9 8 8 8
11 12 15 12 4 1 2 3 2 5 10 14 16 16 17 20 23 24 25 25 27 27 26 25 23 20 18 19 23 28 30 31 32 31 31 34 34 33 33 32 32 32 31 31 29 27 27 27 27 26 25 25 25 25 26 26 25 25 26 26 26 25 25 25 25 24 22 20 20 18 18 17 16 15 14 14 13 13 12 12 12 11 11 10 9 9 8 8 7 7 8 9 8 8 8 8 8
16 17 18 17 12 6 3 3 4 6 10 17 20 15 15 21 22 24 27 25 26 28 25 24 25 22 17 18 24 28 27 28 30 30 31 32 33 32 32 33 33 33 31 31 30 28 27 27 27 26 25 25 25 25 26 26 25 24 25 27 27 26 25 24 25 25 24 22 20 19 18 17 17 16 15 14 14 14 13 13 13 12 11 11 10 9 8 8 8 8 8 9 8 8 8 8 8
14 19 21 19 15 12 10 10 11 10 7 10 17 15 16 22 21 19 22 22 24 28 26 25 29 28 22 21 28 29 25 25 28 29 29 30 31 31 32 33 32 31 30 30 30 28 27 27 26 26 25 25 24 24 25 25 25 25 25 26 27 26 26 25 25 25 25 24 22 20 19 18 17 17 17 16 15 14 14 14 13 13 13 12 11 10 9 9 9 9 8 9 9 8 7 7 7
10 15 21 21 18 14 13 14 17 15 7 6 13 16 19 22 19 17 19 19 19 25 29 27 29 34 30 26 30 28 22 23 24 26 28 27 29 31 32 33 32 30 30 30 30 28 26 25 26 26 25 25 24 24 24 24 25 26 25 26 26 26 26 26 25 25 25 25 24 22 20 19 19 19 19 18 17 16 15 15 14 14 14 13 12 12 10 10 10 9 9 9 9 8 7 7 7
15 15 13 14 18 19 15 9 8 8 3 4 14 18 15 20 19 18 22 21 19 24 28 24 24 33 33 29 32 28 21 21 22 23 24 26 27 28 30 33 33 30 29 30 29 27 25 24 25 25 26 26 25 24 24 25 26 26 25 26 26 26 25 25 25 25 25 25 25 24 22 21 21 21 20 19 18 17 16 16 15 14 14 14 13 13 12 11 11 10 10 9 9 9 8 7 6
19 21 13 7 6 11 12 7 2 3 2 3 13 19 14 16 21 18 22 24 21 23 28 26 23 28 29 31 34 29 23 22 24 24 24 24 26 27 29 31 32 31 30 29 28 27 25 25 24 25 26 26 26 25 25 25 26 26 26 25 25 25 25 24 25 25 25 26 25 25 24 22 22 22 22 21 19 19 18 17 16 15 15 14 13 13 13 12 12 11 11 10 10 9 9 8 7
11 19 21 15 8 7 10 8 5 4 2 2 6 11 14 13 14 14 20 27 24 22 28 30 27 26 27 30 34 32 27 24 22 22 22 23 25 27 29 30 30 30 30 29 29 28 26 25 24 25 26 27 28 28 27 26 26 26 26 26 26 25 25 25 25 25 25 25 24 24 24 24 23 23 23 22 21 19 19 18 18 17 16 15 14 14 13 13 13 12 12 12 11 11 10 10 9
7 16 18 15 12 12 12 11 10 6 2 2 2 4 11 12 9 12 12 28 30 19 19 28 31 30 27 27 32 31 26 23 21 21 21 21 24 27 29 30 30 29 29 30 30 29 27 26 25 26 27 29 30 30 29 27 27 27 27 27 27 26 26 26 26 26 25 24 24 24 24 24 24 24 23 23 22 21 19 19 19 18 17 16 15 15 14 14 13 13 13 13 12 12 11 11 12
11 19 14 8 9 11 10 8 10 11 7 6 3 5 12 11 17 21 9 21 33 19 12 18 25 30 29 23 26 27 23 20 19 21 22 19 21 26 30 31 30 29 30 31 31 31 29 29 27 26 28 30 31 30 29 28 28 28 28 27 26 26 26 26 27 27 26 25 24 24 24 25 25 24 24 23 22 21 20 20 20 19 19 18 17 16 16 15 14 14 13 13 13 13 13 12 12
Wind_Direction
53 72 72 72 104 183 217 254 336 347 318 310 312 306 298 242 172 154 133 114 116 127 142 146 145 143 144 148 154 150 143 147 147 154 156 148 147 144 143 142 144 145 142 139 139 138 136 136 134 136 135 135 135 135 135 132 131 131 131 132 131 126 119 115 111 107 106 102 98 92 85 76 70 75 78 81 89 97 105 107 102 95 93 92 88 88 93 95 98 101 103 107 107 109 108 105 106
54 76 75 79 98 140 198 290 6 2 322 319 321 300 249 194 157 142 125 115 115 122 137 139 134 146 155 152 153 148 140 146 152 160 154 147 147 144 142 141 143 144 142 140 140 140 138 137 136 137 136 136 137 137 136 134 134 135 136 137 133 127 121 118 115 113 110 104 99 92 84 77 75 77 79 89 107 113 111 108 98 91 90 88 85 86 90 90 90 93 95 99 100 102 102 101 100
61 72 79 101 101 78 57 1 359 340 309 310 318 271 178 152 135 128 118 117 116 109 119 129 141 153 162 155 155 155 147 151 164 171 156 148 148 144 141 140 143 144 142 142 140 141 140 139 139 137 138 138 139 139 139 137 139 140 141 139 133 125 120 119 117 115 111 105 100 96 89 80 81 81 80 94 110 115 113 108 98 90 88 87 90 88 87 87 85 86 91 95 97 96 97 97 95
57 61 89 82 36 23 19 352 324 306 302 308 311 198 167 144 133 128 126 126 118 108 114 125 137 143 161 160 159 162 155 154 166 172 154 146 150 144 141 141 144 145 143 142 141 141 140 140 139 138 140 139 140 141 140 140 141 141 139 134 128 123 120 119 116 112 107 104 101 97 93 87 89 88 87 97 101 106 108 102 97 93 91 90 90 88 87 90 91 91 93 95 95 94 94 93 91
52 43 55 42 20 1 345 332 310 302 302 301 288 183 161 145 142 135 130 131 126 122 134 140 135 135 155 159 159 170 160 149 155 164 150 145 150 143 141 143 146 146 144 144 143 142 141 141 141 140 142 141 141 140 139 138 136 134 131 127 124 121 120 118 112 107 105 104 101 97 95 96 97 96 96 99 95 97 100 96 96 97 93 90 90 90 92 95 97 96 96 96 94 94 93 89 85
49 40 39 31 21 353 330 322 308 307 298 271 233 166 159 151 151 145 133 138 140 131 136 152 144 139 141 140 146 164 154 148 153 157 149 144 147 143 141 144 146 146 145 146 145 144 143 144 145 144 145 143 141 138 135 131 129 128 127 126 123 121 119 115 110 107 107 106 103 98 97 99 102 103 103 100 93 90 93 94 95 93 88 87 89 91 95 98 99 98 96 94 94 93 90 85 79
48 39 33 14 10 345 325 322 314 312 288 224 187 160 160 159 154 144 142 149 148 139 142 145 145 143 131 128 136 141 145 150 154 152 147 144 145 143 141 143 144 145 146 147 148 147 147 146 147 146 145 143 139 134 131 129 128 128 128 126 123 121 117 112 109 109 110 108 105 100 98 98 101 105 106 100 93 89 90 93 91 86 83 84 86 89 95 99 100 101 99 96 95 93 88 83 78
60 45 27 6 359 345 335 335 329 316 251 193 175 169 162 160 156 151 153 152 145 143 146 136 153 149 125 132 137 137 146 149 152 150 147 146 145 144 142 144 145 147 149 149 150 149 148 147 147 146 143 141 137 134 131 130 129 129 128 125 122 118 114 111 111 112 111 109 105 102 101 97 99 104 105 99 92 90 89 89 88 84 81 82 84 87 91 98 104 104 102 100 99 94 88 82 80
75 50 26 8 353 354 356 354 348 322 235 193 178 178 163 159 163 154 142 142 140 136 138 144 177 166 131 142 139 139 151 149 150 149 148 148 145 145 144 145 145 147 149 149 150 149 149 147 147 145 143 141 139 136 133 131 130 128 126 123 121 116 113 113 113 113 111 109 106 104 103 100 100 103 103 98 93 92 90 86 85 84 83 83 85 87 92 100 109 109 105 104 102 95 88 83 82
84 50 29 18 4 2 359 1 354 332 219 192 185 178 162 165 170 150 134 134 133 132 141 157 189 181 143 144 139 144 153 150 151 149 149 149 146 145 143 144 145 145 146 147 148 149 150 147 146 145 144 144 141 137 133 130 128 126 125 123 119 116 114 113 113 113 111 108 106 105 103 100 100 102 103 99 94 92 91 88 86 86 86 86 89 93 97 105 111 111 108 106 103 96 89 84 82
92 56 28 18 11 6 354 352 347 342 171 180 178 174 169 173 163 144 138 135 132 139 153 162 168 164 147 138 136 145 151 151 152 150 151 150 148 146 143 143 144 145 144 144 147 150 150 147 146 146 147 146 142 137 133 130 127 126 125 123 120 117 115 114 113 112 110 108 106 104 99 97 98 101 103 100 96 93 93 92 89 87 86 88 95 99 101 105 109 110 109 105 100 95 91 87 86
88 55 27 15 3 360 353 343 337 3 174 180 172 174 171 167 144 138 142 138 139 147 157 166 154 153 147 135 137 145 151 154 154 152 152 152 151 148 146 144 143 145 144 144 146 150 151 149 148 147 147 146 142 137 134 132 129 128 125 123 122 119 117 114 113 111 110 108 105 100 96 96 97 98 100 99 98 95 94 92 91 90 89 92 97 100 102 105 109 111 108 103 98 95 92 90 90
79 44 17 4 355 354 356 351 336 344 182 180 172 168 167 169 146 145 151 139 143 147 151 165 155 154 146 137 140 148 152 155 155 154 154 156 154 149 150 146 143 143 145 146 146 149 152 152 151 148 147 146 143 138 136 134 131 130 126 124 122 119 117 114 111 110 108 106 102 98 97 97 97 96 96 96 95 93 91 92 91 90 91 94 96 98 100 104 108 109 106 101 98 96 92 90 91
62 34 9 348 344 349 352 356 351 321 195 185 176 169 170 174 160 161 158 142 144 148 146 152 154 159 150 143 146 151 155 156 158 156 156 158 154 152 152 148 144 144 145 147 148 152 155 155 153 149 147 146 143 140 137 134 133 131 127 125 121 118 116 114 111 109 107 105 103 100 98 98 98 97 95 93 90 89 89 90 90 89 91 95 97 98 100 104 106 104 100 98 97 96 93 90 89
39 17 353 333 323 334 342 346 352 328 208 189 188 183 173 170 167 164 159 149 145 145 144 139 149 168 162 155 153 155 158 158 161 159 159 161 157 154 153 150 147 146 147 149 151 154 157 157 154 150 147 146 143 139 136 134 133 131 129 126 121 118 116 115 112 109 107 107 105 103 101 101 100 99 97 93 90 89 88 89 90 89 91 94 98 100 103 105 104 101 98 97 97 96 94 92 91
18 355 305 303 305 318 334 342 337 318 231 186 198 191 167 174 173 158 154 151 144 145 142 135 141 175 179 165 155 157 159 160 163 162 162 163 161 157 154 154 151 149 149 148 151 155 157 157 156 153 149 147 143 139 136 134 133 131 130 127 121 118 118 116 113 110 109 109 109 108 106 103 102 100 98 96 93 91 89 89 89 91 92 94 98 102 105 105 104 101 100 99 98 96 96 95 94
287 277 261 274 286 302 327 333 316 324 270 176 191 192 162 174 175 156 154 149 146 148 142 139 133 158 179 165 155 157 159 163 165 166 167 165 163 161 157 157 155 151 149 147 150 153 155 156 157 156 151 148 143 140 137 135 133 132 130 126 122 120 119 117 115 114 111 111 111 109 107 104 103 101 98 96 94 92 89 88 88 90 93 95 99 102 104 103 102 101 100 99 97 96 96 97 97
234 241 249 269 272 290 328 327 307 350 3 174 183 197 161 165 172 161 157 151 147 145 144 142 125 150 174 164 159 160 161 165 169 172 172 168 166 164 161 161 158 153 148 146 148 151 155 156 157 155 154 150 144 141 138 136 134 131 129 125 123 123 120 118 118 117 114 112 109 108 107 105 104 103 101 99 96 94 91 89 89 90 92 95 98 100 102 102 101 99 97 95 93 93 94 96 97
216 228 241 262 271 292 334 345 320 2 93 180 189 195 164 162 169 160 158 158 151 147 152 147 140 159 171 168 164 163 164 168 174 178 177 172 169 167 163 161 160 155 148 146 146 150 156 157 157 156 155 153 147 143 141 139 135 132 129 126 124 123 120 119 120 119 117 114 112 111 109 107 105 105 105 103 100 97 93 91 92 94 94 95 97 98 101 102 101 99 95 93 91 90 91 93 96
218 232 239 252 258 274 313 359 333 344 94 166 199 200 177 169 162 148 154 162 154 151 154 157 163 165 167 173 169 165 168 171 177 181 182 177 171 172 169 162 160 155 149 148 148 151 156 159 160 158 157 155 150 147 145 141 138 134 130 127 127 126 122 121 122 121 120 117 115 113 110 107 106 105 104 103 102 99 97 96 96 97 97 95 97 98 100 100 100 99 95 92 91 91 91 92 95
220 240 266 302 252 258 294 330 330 321 357 122 193 201 184 168 162 157 159 161 155 153 155 165 175 162 165 177 170 169 173 174 179 182 184 181 173 174 174 167 160 156 153 149 150 155 158 161 162 159 156 154 152 149 147 145 141 137 133 133 132 129 126 123 123 121 119 116 113 112 110 107 108 107 104 103 104 104 104 101 100 100 99 98 97 98 100 100 100 99 99 98 97 95 94 95 96
220 243 273 296 264 271 297 313 331 304 312 40 156 190 194 167 161 169 163 158 156 155 159 174 184 162 169 178 170 174 178 177 180 182 187 185 176 174 175 171 165 160 157 152 154 159 161 162 162 160 155 153 154 151 149 147 144 141 138 138 136 132 129 126 124 122 118 115 112 111 110 109 108 108 107 107 106 108 110 108 105 104 104 104 103 103 103 103 101 100 101 105 104 99 98 99 98
225 243 256 257 255 276 285 303 331 304 317 30 122 180 207 185 164 170 165 158 159 157 156 170 184 173 173 177 174 179 182 178 178 182 189 187 178 177 177 174 169 162 157 157 158 161 164 163 162 161 155 154 155 153 151 150 147 146 143 139 137 134 130 128 126 123 120 115 111 108 108 108 108 108 108 107 104 106 112 113 113 113 112 112 112 112 111 109 106 106 105 103 99 97 97 98 99
237 247 245 238 246 267 275 306 317 303 104 121 230 226 206 190 178 172 167 163 161 160 156 164 176 172 172 176 177 184 185 176 175 182 189 189 183 179 180 177 170 164 160 162 163 163 166 165 163 161 157 157 157 154 152 152 152 149 144 140 138 135 131 132 129 125 123 116 109 106 105 105 107 109 107 103 101 106 112 115 116 116 117 118 118 119 118 117 115 114 112 106 102 101 98 96 94
239 254 257 242 240 254 277 293 282 260 229 247 256 270 168 169 173 168 171 172 167 167 162 164 170 167 169 174 176 185 187 177 176 183 189 192 190 182 181 181 175 170 166 166 167 166 168 167 164 162 160 158 156 154 153 153 153 148 144 142 140 137 135 137 133 129 126 114 107 106 102 101 102 103 103 103 103 107 111 111 112 113 117 121 121 123 124 123 123 121 115 110 109 108 105 102 98
233 246 255 247 229 227 255 272 259 253 269 277 259 248 133 168 174 172 178 172 167 176 168 166 173 168 165 170 177 187 186 179 180 185 189 191 193 187 182 183 180 176 171 169 170 169 170 170 166 164 163 159 156 154 154 155 152 150 149 146 143 142 139 139 136 129 123 113 111 111 103 102 103 99 101 107 108 107 106 104 105 111 117 120 121 124 126 125 124 124 116 112 113 109 104 106 106
240 241 250 251 236 224 238 257 254 244 248 273 256 167 146 192 185 182 181 167 172 185 173 170 176 166 162 171 180 190 186 181 185 188 190 192 195 189 184 185 183 180 176 173 174 173 174 172 168 167 165 161 159 156 157 158 154 154 154 150 146 144 142 140 137 131 125 121 119 114 109 111 110 107 106 106 108 105 104 104 107 116 119 118 119 120 125 125 122 123 118 116 118 112 102 103 104
241 240 256 254 230 229 232 232 236 237 243 267 258 167 159 174 180 195 189 168 175 190 179 171 175 163 160 171 181 189 190 187 189 193 193 194 198 192 187 187 183 183 180 178 177 176 177 176 170 168 167 163 161 161 161 160 157 156 156 153 147 144 146 144 141 137 127 122 119 113 116 119 112 111 107 102 103 101 104 112 117 122 121 116 117 118 124 126 125 126 123 122 122 117 112 105 102
239 237 256 247 221 235 232 219 230 247 254 254 246 184 166 161 173 194 197 178 175 189 182 169 177 175 163 173 181 185 190 191 189 195 196 196 202 195 189 188 187 187 182 180 179 178 181 179 172 168 168 165 163 165 165 161 157 156 156 154 150 147 147 145 141 135 125 123 121 118 122 119 111 112 109 106 108 110 115 123 126 123 119 117 119 122 125 127 131 133 130 130 125 118 111 102 102
248 242 254 245 233 240 230 218 227 241 248 250 247 203 177 169 185 188 193 189 178 183 178 170 181 184 173 179 183 183 190 193 190 194 196 197 204 200 190 189 191 190 185 184 181 181 184 180 176 171 168 168 167 168 167 163 158 156 156 154 154 152 147 144 142 135 130 132 127 122 123 117 115 115 111 106 107 115 117 116 119 118 116 116 120 124 126 130 136 138 137 134 129 124 119 115 115
245 239 243 239 241 238 226 221 220 226 237 246 241 208 196 192 200 197 195 190 180 179 174 173 185 186 182 183 182 185 191 195 193 195 197 197 203 204 192 188 193 194 189 186 184 185 186 182 179 174 170 170 170 169 167 165 161 158 157 157 158 155 150 148 145 139 136 138 131 125 126 122 118 116 114 107 103 112 114 110 114 119 120 118 120 126 129 135 141 144 145 142 137 132 128 129 123
229 231 236 233 239 238 229 225 218 220 225 224 214 205 210 207 195 189 194 190 184 182 173 176 189 189 188 187 183 187 190 195 195 193 198 200 200 205 198 188 193 197 191 187 188 188 188 186 182 178 174 171 170 171 166 165 164 160 159 161 161 156 155 153 148 146 143 141 136 129 130 127 119 119 120 114 109 113 114 113 115 116 121 121 121 125 131 138 141 143 147 147 143 135 129 128 123
225 229 239 234 234 236 234 226 219 219 211 201 206 209 204 199 192 189 193 193 190 188 177 181 193 190 188 188 186 187 188 194 197 192 198 202 199 204 205 192 191 199 195 189 193 192 190 187 183 182 179 172 171 172 168 166 164 161 164 165 161 158 159 157 152 150 146 143 141 134 131 123 118 123 123 117 114 115 118 121 118 114 116 120 123 126 133 138 138 141 146 148 150 145 136 130 125
232 229 235 236 234 234 233 225 213 210 200 190 198 207 199 192 192 194 197 193 191 189 181 184 195 196 194 189 186 189 189 192 196 194 198 203 200 201 209 201 190 197 199 192 195 196 192 189 185 184 182 177 174 173 170 167 164 163 166 165 162 162 162 160 155 151 148 147 144 138 133 124 119 122 121 118 118 117 122 126 122 119 118 121 125 129 134 137 139 145 148 151 156 149 141 137 134
227 222 221 225 227 232 234 230 212 203 197 189 189 193 200 208 196 193 198 192 192 193 187 187 195 200 198 193 192 194 192 193 195 194 197 202 201 200 209 210 194 195 200 195 195 197 194 190 188 186 185 182 177 175 173 170 166 165 167 166 164 165 165 163 159 153 151 150 146 141 137 130 123 121 120 122 122 118 121 124 122 123 123 121 123 127 131 137 141 147 151 153 156 149 144 146 141
235 236 236 234 231 234 233 233 225 208 198 187 186 193 206 213 200 194 195 193 199 200 194 194 199 200 196 197 200 199 198 196 194 194 197 201 201 201 208 212 203 197 199 199 197 196 196 193 190 189 187 186 182 178 176 174 170 168 169 169 170 169 167 166 163 157 154 151 148 145 140 133 125 123 126 127 124 119 117 115 116 118 117 114 115 119 127 136 143 147 152 152 152 148 148 150 137
250 262 272 276 267 257 239 232 238 220 199 187 189 198 206 208 202 205 201 197 203 200 198 204 206 203 201 201 202 202 201 198 196 195 197 202 202 202 209 212 209 201 198 201 201 197 197 195 192 192 190 187 186 182 179 178 174 172 173 173 173 173 170 167 165 160 155 153 150 146 143 137 130 125 128 129 124 122 118 111 109 109 109 109 110 114 121 132 142 147 150 148 148 150 151 146 130
253 265 275 284 286 281 263 238 240 236 205 191 192 195 197 203 205 210 209 205 208 202 204 212 211 207 206 204 202 202 200 198 199 193 193 204 206 205 210 213 212 206 199 201 204 201 198 198 194 194 194 189 187 186 183 182 177 175 178 178 176 176 174 169 167 162 156 158 155 150 148 143 138 131 127 128 123 122 120 114 110 108 108 112 113 114 117 124 134 141 145 146 147 149 152 146 132
254 263 271 277 283 288 281 241 231 242 219 193 191 190 193 202 209 211 213 213 213 206 207 212 213 210 209 207 204 204 201 199 200 192 190 201 208 208 212 215 215 212 204 202 205 205 202 200 195 195 197 192 189 188 187 186 181 179 183 184 180 179 179 173 171 169 162 163 160 153 152 147 141 136 129 127 124 121 122 118 115 112 109 110 112 114 116 120 126 133 139 142 144 147 154 148 136
252 256 263 268 271 278 277 271 256 248 226 196 191 190 190 191 198 206 213 220 216 207 202 208 216 217 214 211 208 208 205 200 199 194 192 198 205 210 214 216 217 214 207 203 205 208 207 203 197 197 197 194 193 190 188 189 185 183 186 188 185 183 187 181 175 175 169 165 163 157 154 151 144 140 136 133 130 127 128 124 117 113 112 108 106 109 112 114 117 122 127 130 139 148 159 149 135
248 249 253 258 257 267 271 281 293 286 277 218 193 183 180 180 186 195 202 216 219 212 200 200 211 217 217 215 212 211 209 206 203 198 197 200 204 209 214 215 216 216 209 204 205 209 211 207 200 199 198 195 196 193 190 191 189 188 188 189 189 189 192 189 178 177 174 166 165 163 157 155 150 145 141 139 136 134 131 128 122 118 117 112 107 106 108 112 114 117 122 123 129 142 156 150 139
249 245 245 251 253 263 266 278 297 298 303 236 192 176 164 179 187 188 194 208 213 215 210 201 202 208 212 214 214 212 210 212 211 205 203 205 206 208 213 215 217 218 213 206 206 210 214 211 203 201 200 197 198 196 194 194 193 193 194 193 195 194 194 191 179 174 176 172 169 168 162 160 157 151 146 144 142 139 134 131 129 125 121 116 112 110 110 114 114 113 117 118 119 128 146 154 147
249 245 238 243 250 263 265 274 292 289 301 276 206 211 167 176 187 187 197 212 208 215 221 209 203 206 209 212 213 214 211 210 211 211 209 208 208 210 214 217 217 219 217 210 207 209 214 214 208 204 202 200 200 199 197 197 197 197 199 199 200 201 197 195 184 175 179 180 174 172 169 165 163 157 151 149 148 144 139 135 132 128 125 121 117 113 114 115 110 107 114 116 116 119 131 146 145
242 240 238 241 242 259 265 268 276 276 289 292 256 245 178 178 192 195 204 210 204 214 224 216 210 210 211 210 211 213 212 210 209 211 210 208 210 214 217 218 217 219 220 215 210 210 214 216 212 207 204 202 202 203 201 200 200 200 201 202 202 203 200 200 196 187 185 186 180 177 175 172 169 164 159 155 151 150 146 141 136 132 132 128 121 117 116 112 105 105 112 115 115 116 117 128 138
238 237 240 249 255 264 264 259 262 269 284 285 271 275 211 187 195 200 204 203 202 213 222 217 212 211 212 211 210 211 211 210 209 211 211 208 211 216 219 219 218 219 220 218 213 212 215 217 215 210 206 205 204 205 205 203 203 203 204 206 204 201 198 199 203 200 194 190 186 184 181 178 175 170 167 162 157 156 155 148 144 142 142 137 130 126 119 111 107 107 110 114 115 116 116 123 132
234 236 239 249 263 273 264 253 259 258 262 268 265 273 294 203 191 192 195 200 209 219 224 221 215 214 219 215 209 208 209 210 211 214 214 212 212 216 218 220 220 220 220 220 217 214 215 217 217 213 208 207 206 207 208 206 205 205 205 208 208 203 197 198 203 204 200 195 189 188 187 182 179 177 173 171 166 164 163 158 153 151 150 147 142 135 124 117 114 110 109 113 115 114 117 124 126
234 236 236 245 256 270 273 262 275 274 243 252 259 262 284 268 185 187 193 208 227 225 223 224 220 217 219 216 209 206 206 211 213 213 213 213 215 217 218 219 220 220 221 221 218 214 214 217 219 218 212 209 208 208 210 210 207 207 207 209 212 207 200 201 206 205 202 200 193 188 191 189 183 182 179 177 175 172 170 166 161 157 156 157 154 145 135 129 120 112 110 113 113 112 114 119 123
238 225 222 242 249 259 274 265 265 307 265 250 257 257 265 273 223 203 208 230 247 235 226 223 218 215 216 213 210 207 208 214 216 212 211 212 213 216 218 219 219 220 221 221 218 215 214 216 218 219 217 213 210 209 211 212 210 209 209 209 213 213 205 204 210 209 204 203 200 191 191 194 190 186 184 181 179 178 177 172 168 164 161 164 164 158 148 137 124 116 114 114 114 115 113 113 119
244 211 216 244 248 243 256 247 235 250 261 260 254 251 253 258 256 239 225 230 238 243 242 231 220 218 219 214 210 209 211 216 218 214 213 213 212 215 217 218 218 218 219 219 217 214 212 215 216 217 219 218 214 211 211 214 213 209 210 211 213 216 211 206 209 213 208 204 205 199 194 196 196 192 188 185 182 182 182 177 175 174 170 170 172 173 165 151 142 132 121 115 116 120 119 115 118
227 213 223 231 227 213 212 200 197 234 248 249 241 242 245 246 250 241 231 234 238 244 249 241 229 220 219 219 213 211 211 213 217 216 215 214 211 213 215 216 218 218 219 219 217 214 211 212 214 215 217 219 218 215 212 215 215 211 211 213 214 217 216 211 208 213 213 207 206 206 201 198 199 199 196 192 188 187 187 184 182 181 179 177 177 181 177 165 158 149 134 125 123 123 127 126 121
221 216 223 229 228 233 237 192 176 202 228 230 224 223 229 232 238 237 233 237 243 248 248 239 231 221 217 223 215 212 212 211 213 214 214 214 213 213 213 214 216 217 218 219 216 213 209 208 210 211 213 216 218 218 215 215 216 214 212 214 216 218 218 217 212 211 214 213 209 208 207 204 201 201 202 201 197 193 193 191 188 186 186 184 184 186 186 179 170 164 153 141 136 132 131 135 132
221 215 219 226 227 235 257 260 257 261 265 242 227 223 227 229 234 238 234 236 242 245 239 230 227 222 216 218 212 208 211 210 210 211 212 213 213 215 216 215 216 216 215 218 217 214 210 207 206 205 209 213 217 218 218 216 217 217 216 215 217 219 218 218 216 212 212 214 213 210 209 209 207 206 206 206 203 200 199 198 194 192 191 189 189 190 192 191 184 178 172 157 148 144 137 138 140
218 217 216 218 223 235 260 274 278 280 288 284 261 247 230 223 229 233 228 229 229 229 232 232 227 222 216 212 208 205 208 209 210 213 214 214 214 215 218 219 219 218 214 215 218 217 213 208 204 201 204 210 215 216 217 216 217 218 219 218 218 220 220 219 219 216 213 213 215 214 211 210 210 212 211 211 208 205 205 205 202 198 196 194 192 194 195 196 194 190 186 176 163 156 150 145 144
238 242 223 214 220 225 239 265 290 289 258 261 278 274 238 206 210 222 221 223 219 219 233 238 224 220 218 210 205 207 212 209 209 213 215 215 217 218 219 220 222 221 216 215 219 219 215 210 205 200 201 206 211 214 214 215 216 218 219 220 220 220 221 221 221 220 218 215 215 216 216 213 211 213 216 215 212 209 209 210 209 204 201 199 196 198 199 198 199 198 196 193 183 172 166 161 157
242 253 252 253 241 235 249 260 258 277 305 281 277 286 275 211 201 210 211 212 213 216 229 232 219 217 219 211 206 208 213 210 207 212 216 217 219 219 219 221 222 221 217 216 218 218 214 210 206 201 200 204 209 214 216 215 215 217 219 221 221 222 222 222 222 222 222 220 216 216 218 218 215 214 216 219 217 213 211 213 213 209 205 204 202 201 203 202 202 202 202 203 199 191 183 179 176
244 257 259 260 269 276 280 269 233 231 253 289 277 290 290 250 227 238 220 204 204 211 218 221 219 218 221 216 210 207 208 209 208 213 220 221 221 219 219 221 222 221 219 217 216 217 214 210 205 200 197 200 206 212 216 215 214 216 217 219 221 222 222 222 222 222 224 223 220 218 219 221 221 218 217 219 220 217 214 214 216 215 210 208 207 206 206 206 206 206 206 205 205 204 198 194 191
320 290 275 264 262 260 272 274 260 257 249 261 289 265 271 284 325 323 255 205 200 201 206 216 221 223 226 222 213 208 207 210 212 215 219 222 221 219 218 221 223 222 219 217 216 216 215 211 206 199 197 199 203 209 213 212 212 214 216 218 219 220 221 222 222 222 224 225 224 221 219 221 224 223 221 220 220 219 217 215 217 217 214 212 210 209 211 211 210 210 209 208 208 209 208 205 202
333 311 296 310 301 262 261 264 243 252 258 235 250 269 267 307 357 357 333 201 197 191 182 209 223 225 225 222 212 209 212 216 217 215 215 217 218 217 217 219 219 219 217 216 216 216 217 214 208 201 198 199 202 207 213 213 210 211 213 216 218 220 221 221 221 222 222 223 224 223 221 221 224 226 226 225 221 219 219 219 219 218 215 214 212 211 212 212 212 212 213 213 212 213 213 211 208